Regional Weather Roundup
Issued by NWS

Home | Current Version | Previous Version | Graphics & Text | Print | Product List | Glossary On
Versions: 1 2 3 4 5 6 7 8 9 10 11 12 13 14 15 16 17 18 19 20 21 22 23 24 25 26 27 28 29 30 31 32 33 34 35 36 37 38 39 40 41 42 43 44 45 46 47 48 49 50
000
ASUS45 KSLC 172010
RWRUT

UTAH REGIONAL WEATHER ROUNDUP
NATIONAL WEATHER SERVICE SALT LAKE CITY UT
200 PM MDT TUE OCT 17 2017

UTZ001>011-023>025-172100-

NORTHERN UTAH

CITY           SKY/WX    TMP DP  RH WIND       PRES   REMARKS
BRIGHAM CITY   MOSUNNY   63  14  15 CALM      30.22F
HILL AFB       MOSUNNY   63  20  19 SW3       30.22F
LOGAN          MOSUNNY   63  22  20 W3        30.21F
OGDEN          MOSUNNY   64  19  17 E3        30.21F
SALT LAKE CITY PTSUNNY   65  26  23 E3        30.20F
TOOELE VALLEY  SUNNY     59  32  36 NW5       30.22F
WENDOVER       SUNNY     54  18  24 E7        30.22F
WEST JORDAN    SUNNY     66  28  24 CALM      30.22F

$$

UTZ011>015-024>027-172100-

CENTRAL/NORTHEAST UTAH

CITY           SKY/WX    TMP DP  RH WIND       PRES   REMARKS
PROVO AIRPORT  SUNNY     62  29  28 W3        30.22F
MOAB/CANYONLAN SUNNY     67  11  11 VRB7      30.25F
DELTA          MOSUNNY   64  16  15 CALM      30.23F
PRICE          SUNNY     63  11  13 SE7       30.31F
ROOSEVELT      SUNNY     61  14  16 CALM      30.30F
VERNAL         SUNNY     61  14  16 CALM      30.28F

$$

UTZ013>016-019>022-027-172100-

SOUTHERN UTAH

CITY           SKY/WX    TMP DP  RH WIND       PRES   REMARKS
BRYCE CANYON   SUNNY     66   7  10 S14       30.37F
CEDAR CITY     SUNNY     78  14   9 SW16G24   30.22F
MILFORD        SUNNY     72   9   8 S10       30.21F
ST GEORGE      CLEAR     73  12   9 CALM      30.14F
HANKSVILLE     SUNNY     66  12  12 CALM      30.29F
BLANDING         N/A     67  11  11 S7        30.38F

$$

REGIONAL REPORTS     COLORADO/ARIZONA

CITY           SKY/WX    TMP DP  RH WIND       PRES   REMARKS
CRAIG, CO      SUNNY     68   6   9 NW8       30.27F
GRAND JUNCTION SUNNY     65  14  14 CALM      30.27F
RIFLE, CO      SUNNY     64   8  11 NW5       30.28F
MONTROSE, CO   SUNNY     65  16  15 VRB5      30.30F
CORTEZ, CO     SUNNY     68  11  11 SW10      30.30F
COLORADO CITY    N/A     81  25  12 SW6       30.24F
PAGE, AZ       SUNNY     68  15  13 N6        30.24F
GRAND CANYON   SUNNY     74  19  12 W9G17     30.34F
KINGMAN, AZ    SUNNY     88  32  13 W12       30.14F
FLAGSTAFF, AZ  SUNNY     73  21  14 SW7       30.34F

$$

REGIONAL REPORTS    NEVADA/IDAHO/WYOMING

CITY           SKY/WX    TMP DP  RH WIND       PRES   REMARKS
LAS VEGAS, NV  MOSUNNY   81  14   8 NE3       30.09F
ELY, NY        SUNNY     73  21  14 VRB3      30.24F
ELKO, NV       MOSUNNY   66  11  11 S7        30.21F
POCATELLO, ID  SUNNY     62  28  27 E6        30.17F
BURLEY, ID     SUNNY     67  26  21 CALM      30.13F
FORT BRIDGER,    N/A     71   3   7 W21G30    30.29F
EVANSTON, WY   SUNNY     67   7   9 SW18G26   30.28F
ROCK SPRINGS,  SUNNY     64   3   9 W14       30.26F
KEMMERER, WY   SUNNY     64   7  10 W10G18    30.29F

$$



USA.gov is the U.S. government's official web portal to all federal, state and local government web resources and services.